Blue Canyon, CA

8:03 AM PDT on April 22, 2018 (GMT -0700)
Blue Canyon-Nyack

Weather History for KBLU - March, 2014

Change the Weather History Date:

Tuesday, March 4, 2014

  Actual Average Record
Temperature  
Mean Temperature 42 °F -  
Max Temperature 50 °F 44 °F 65 °F (1986)
Min Temperature 35 °F 30 °F 16 °F (1976)
Degree Days  
Heating Degree Days 22    
Moisture  
Dew Point 40 °F    
Average Humidity 90    
Maximum Humidity 100    
Minimum Humidity 66    
Precipitation  
Precipitation 0.24 in - - ()
Sea Level Pressure  
Sea Level Pressure 30.11 in    
Wind  
Wind Speed 4 mph (SSE)    
Max Wind Speed 7 mph    
Max Gust Speed -    
Visibility 4 miles    
Events Fog , Rain    
Averages and records for this station are not official NWS values.
T = Trace of Precipitation, MM = Missing Value Source: NWS Daily Summary

Daily Weather History Graph

Daily Weather History Graph

Search for Another Location

Airport or City:

Astronomy

Mar. 04, 2014 Rise Set
Actual Time 6:30 AM PST 5:58 PM PST
Civil Twilight 6:04 AM PST 6:25 PM PST
Nautical Twilight 5:33 AM PST 6:56 PM PST
Astronomical Twilight 5:02 AM PST 7:27 PM PST
Moon 8:22 AM PST (3/4) 10:09 PM PST (3/4)
Length of Visible Light 12h 21m
Length of Day
11h 27m
Waxing Crescent, 15% of the Moon is Illuminated
Mar 4
Waxing Crescent
Mar 8
First Quarter
Mar 16
Full
Mar 23
Last Quarter
Mar 30
New

Hourly Weather History & Observations

Time (PST) Temp. Windchill Dew Point Humidity Pressure Visibility Wind Dir Wind Speed Gust Speed Precip Events Conditions
12:17 AM 36.0 °F 33.3 °F 34.0 °F 93% 30.11 in 5.0 mi Variable 3.5 mph - 0.04 in Rain Rain
12:52 AM 36.0 °F 31.1 °F 33.1 °F 89% 30.10 in 5.0 mi ESE 5.8 mph - 0.11 in Rain Light Rain
1:00 AM 36.0 °F 31.1 °F 34.0 °F 93% 30.12 in 4.0 mi ESE 5.8 mph - 0.01 in Rain Light Rain
1:08 AM 36.0 °F 32.1 °F 34.0 °F 93% 30.12 in 7.0 mi ESE 4.6 mph - 0.01 in Rain Light Rain
1:31 AM 36.0 °F 31.1 °F 34.0 °F 93% 30.11 in 3.0 mi ESE 5.8 mph - 0.01 in   Overcast
1:43 AM 36.0 °F 32.1 °F 34.0 °F 93% 30.11 in 2.0 mi ESE 4.6 mph - 0.02 in   Overcast
1:50 AM 35.6 °F 32.8 °F 33.8 °F 93% 30.11 in 1.2 mi ESE 3.5 mph - 0.02 in   Overcast
1:52 AM 36.0 °F 33.3 °F 35.1 °F 97% 30.08 in 1.2 mi ESE 3.5 mph - 0.02 in   Overcast
2:03 AM 36.0 °F 32.1 °F 35.1 °F 97% 30.10 in 0.8 mi ESE 4.6 mph - 0.00 in   Mist
2:22 AM 37.0 °F 34.5 °F 35.1 °F 93% 30.10 in 1.0 mi ESE 3.5 mph - 0.01 in   Mist
2:50 AM 37.4 °F 34.9 °F 35.6 °F 93% 30.09 in 1.0 mi ESE 3.5 mph - 0.03 in   Mist
2:52 AM 37.0 °F 34.5 °F 36.0 °F 96% 30.06 in 1.0 mi SE 3.5 mph - 0.03 in   Mist
2:58 AM 37.0 °F 34.5 °F 36.0 °F 96% 30.09 in 0.8 mi SE 3.5 mph - 0.00 in   Mist
3:11 AM 37.0 °F 33.3 °F 36.0 °F 96% 30.08 in 1.0 mi SE 4.6 mph - 0.01 in   Mist
3:52 AM 37.9 °F 34.4 °F 36.0 °F 93% 30.05 in 0.8 mi SE 4.6 mph - 0.02 in Rain Light Rain
4:04 AM 37.9 °F 34.4 °F 36.0 °F 93% 30.09 in 1.0 mi SE 4.6 mph - 0.01 in Rain Light Rain
4:17 AM 37.9 °F 34.4 °F 36.0 °F 93% 30.09 in 0.8 mi SE 4.6 mph - 0.01 in Rain Light Rain
4:28 AM 37.9 °F 33.5 °F 36.0 °F 93% 30.09 in 1.0 mi SSE 5.8 mph - 0.02 in Rain Light Rain
4:52 AM 37.9 °F 33.5 °F 36.0 °F 93% 30.07 in 1.2 mi SSE 5.8 mph - 0.04 in Rain Light Rain
5:13 AM 37.9 °F 32.7 °F 37.0 °F 97% 30.10 in 0.8 mi SSE 6.9 mph - 0.00 in Rain Light Rain
5:28 AM 37.9 °F 34.4 °F 37.0 °F 97% 30.11 in 0.8 mi SSE 4.6 mph - 0.01 in   Mist
5:49 AM 37.4 °F - 37.4 °F 100% 30.11 in 1.0 mi Calm Calm - 0.01 in Rain Light Rain
5:52 AM 37.9 °F 35.5 °F 36.0 °F 93% 30.08 in 1.0 mi Variable 3.5 mph - 0.01 in   Mist
6:52 AM 37.9 °F - 37.0 °F 97% 30.09 in 0.8 mi Calm Calm - 0.01 in   Mist
7:17 AM 37.9 °F 35.5 °F 37.0 °F 97% 30.12 in 1.2 mi ENE 3.5 mph - N/A   Overcast
7:25 AM 37.9 °F 35.5 °F 37.0 °F 97% 30.13 in 1.2 mi Variable 3.5 mph - N/A   Overcast
7:45 AM 39.0 °F - 37.9 °F 96% 30.14 in 2.0 mi Calm Calm - N/A   Overcast
7:52 AM 39.0 °F - 37.9 °F 96% 30.12 in 3.0 mi Calm Calm - N/A   Overcast
8:04 AM 39.9 °F - 37.9 °F 93% 30.16 in 8.0 mi Calm Calm - N/A   Overcast
8:20 AM 39.9 °F - 37.9 °F 93% 30.16 in 10.0 mi Calm Calm - N/A   Overcast
8:52 AM 39.9 °F 37.8 °F 37.9 °F 93% 30.13 in 10.0 mi Variable 3.5 mph - N/A   Overcast
9:52 AM 44.1 °F 41.5 °F 39.0 °F 82% 30.12 in 10.0 mi Variable 4.6 mph - N/A   Partly Cloudy
10:52 AM 46.9 °F - 39.0 °F 74% 30.09 in 10.0 mi Calm Calm - N/A   Scattered Clouds
11:13 AM 48.0 °F - 37.9 °F 68% 30.15 in 10.0 mi Variable 3.5 mph - N/A   Mostly Cloudy
11:52 AM 46.9 °F - 37.9 °F 71% 30.11 in 10.0 mi West 3.5 mph - N/A   Mostly Cloudy
12:52 PM 48.0 °F - 39.0 °F 71% 30.09 in 10.0 mi Variable 3.5 mph - N/A   Mostly Cloudy
1:04 PM 48.9 °F - 39.0 °F 69% 30.14 in 10.0 mi Calm Calm - N/A   Partly Cloudy
1:52 PM 50.0 °F - 39.0 °F 66% 30.06 in 10.0 mi North - - N/A   Partly Cloudy
2:39 PM 50.0 °F - 41.0 °F 71% 30.12 in 10.0 mi Variable 4.6 mph - N/A   Mostly Cloudy
2:52 PM 50.0 °F - 39.9 °F 68% 30.05 in 10.0 mi South 5.8 mph - N/A   Mostly Cloudy
3:25 PM 48.9 °F - 44.1 °F 83% 30.11 in 10.0 mi SW 3.5 mph - N/A   Mostly Cloudy
3:42 PM 48.9 °F - 44.1 °F 83% 30.11 in 10.0 mi Variable 4.6 mph - N/A   Overcast
3:52 PM 48.9 °F - 44.1 °F 83% 30.04 in 10.0 mi Calm Calm - N/A   Overcast
4:00 PM 48.9 °F - 44.1 °F 83% 30.11 in 10.0 mi WSW 4.6 mph - N/A   Overcast
4:52 PM 46.9 °F - 44.1 °F 90% 30.04 in 10.0 mi West 4.6 mph - N/A   Overcast
5:07 PM 46.9 °F - 44.1 °F 90% 30.11 in 2.5 mi West 5.8 mph - N/A   Overcast
5:12 PM 46.9 °F - 45.0 °F 93% 30.11 in 1.2 mi West 5.8 mph - N/A   Overcast
5:18 PM 46.9 °F - 44.1 °F 90% 30.11 in 2.0 mi WNW 4.6 mph - N/A   Overcast
5:26 PM 46.9 °F - 44.1 °F 90% 30.11 in 6.0 mi West 4.6 mph - N/A   Overcast
5:28 PM 46.9 °F - 44.1 °F 90% 30.11 in 1.0 mi West 5.8 mph - N/A   Overcast
5:33 PM 46.0 °F 43.9 °F 44.1 °F 93% 30.11 in 0.2 mi WSW 4.6 mph - N/A Fog Fog
5:52 PM 46.0 °F 44.8 °F 44.1 °F 93% 30.06 in 0.2 mi SW 3.5 mph - N/A Fog Fog
6:09 PM 46.0 °F 44.8 °F 44.1 °F 93% 30.12 in 1.0 mi SW 3.5 mph - N/A   Mist
6:14 PM 46.0 °F 44.8 °F 44.1 °F 93% 30.12 in 2.0 mi SW 3.5 mph - N/A   Overcast
6:17 PM 46.0 °F - 44.1 °F 93% 30.12 in 1.2 mi Calm Calm - N/A   Overcast
6:28 PM 46.0 °F - 44.1 °F 93% 30.12 in 0.8 mi Calm Calm - N/A   Mist
6:41 PM 45.0 °F - 43.0 °F 93% 30.12 in 1.5 mi Calm Calm - N/A   Overcast
6:44 PM 45.0 °F - 43.0 °F 93% 30.12 in 4.0 mi Calm Calm - N/A   Overcast
6:52 PM 45.0 °F - 43.0 °F 93% 30.07 in 5.0 mi Calm Calm - N/A   Overcast
7:26 PM 45.0 °F - 44.1 °F 97% 30.13 in 1.8 mi Calm Calm - N/A   Mostly Cloudy
7:33 PM 45.0 °F 43.5 °F 44.1 °F 97% 30.13 in 0.8 mi South 3.5 mph - N/A   Overcast
7:52 PM 45.0 °F 42.6 °F 44.1 °F 97% 30.08 in 0.2 mi South 4.6 mph - N/A Fog Fog
8:11 PM 44.1 °F 41.5 °F 43.0 °F 96% 30.14 in 1.0 mi SSW 4.6 mph - N/A   Mist
8:13 PM 44.1 °F 41.5 °F 42.1 °F 93% 30.14 in 3.0 mi South 4.6 mph - N/A   Overcast
8:42 PM 44.1 °F 42.5 °F 41.0 °F 89% 30.13 in 10.0 mi East 3.5 mph - N/A   Overcast
8:52 PM 43.0 °F - 41.0 °F 93% 30.09 in 10.0 mi Calm Calm - N/A   Overcast
9:45 PM 44.1 °F - 41.0 °F 89% 30.15 in 9.0 mi Calm Calm - N/A   Overcast
9:52 PM 43.0 °F - 41.0 °F 93% 30.08 in 7.0 mi Calm Calm - N/A   Overcast
10:20 PM 43.0 °F - 41.0 °F 93% 30.15 in 1.8 mi Calm Calm - N/A   Overcast
10:25 PM 43.0 °F 41.3 °F 42.1 °F 97% 30.15 in 0.8 mi East 3.5 mph - N/A   Overcast
10:41 PM 44.1 °F - 42.1 °F 93% 30.15 in 0.2 mi Calm Calm - N/A Fog Fog
10:52 PM 44.1 °F - 42.1 °F 93% 30.06 in 0.2 mi Calm Calm - N/A Fog Fog
11:03 PM 44.1 °F 42.5 °F 42.1 °F 93% 30.14 in 0.5 mi Variable 3.5 mph - N/A Fog Fog
11:16 PM 44.1 °F 42.5 °F 42.1 °F 93% 30.14 in 1.5 mi ESE 3.5 mph - N/A   Overcast
11:24 PM 43.0 °F 41.3 °F 42.1 °F 97% 30.14 in 2.0 mi ESE 3.5 mph - N/A   Overcast
11:30 PM 44.1 °F 42.5 °F 42.1 °F 93% 30.14 in 3.0 mi SE 3.5 mph - N/A   Overcast
11:52 PM 44.1 °F 40.8 °F 41.0 °F 89% 30.06 in 10.0 mi SSE 5.8 mph - N/A   Overcast
11:55 PM 44.1 °F 40.1 °F 41.0 °F 89% 30.14 in 10.0 mi SSE 6.9 mph - N/A   Overcast